Location: Peterborough
(44.3091°N, 78.3197°W)
Time: 00:21:51
(UTC-04:00)

S-56A Canister/Altair - Pass Details

Date: 26 March 2023
Orbit: 639 x 2492 km, 38.9° (Epoch: 02 June)

Event Time Altitude Azimuth Distance (km) Brightness Sun altitude
Rises 23:57:44 0° 276° (W) 5,746 12.3 -40.2°
Reaches altitude 10° 00:01:18 10° 273° (W) 4,896 11.8 -40.5°
Enters shadow 00:13:27 59° 228° (SW) 2,777 10.0 -41.3°
